K0CPM-2 Weather Reports


time (UTC)temp
F
wind
direction
speed
knots
gust
knots
rain 1hr
in
rain 24hr
in
rain mn
in
humidity
%
barometer
mb
20260510224547 84 343 0.0 0.9 0.00 0.04 0.00 85 1012.2
20260510223044 84 38 0.0 0.9 0.00 0.04 0.00 83 1012.3
20260510221543 84 1 0.0 0.9 0.00 0.04 0.00 83 1012.1
20260510220043 84 352 0.0 0.9 0.00 0.04 0.00 80 1012.1
20260510214540 83 172 0.0 1.7 0.00 0.05 0.00 83 1012.3
20260510213050 83 358 0.0 1.7 0.00 0.05 0.00 83 1012.1
20260510211538 83 218 0.0 1.7 0.00 0.05 0.00 86 1012.2
20260510210037 83 4 0.0 1.7 0.00 0.05 0.00 85 1012.3
20260510204545 83 340 0.0 0.9 0.00 0.07 0.00 88 1012.2
20260510203034 82 156 0.0 0.9 0.00 0.07 0.00 89 1012.3
20260510201531 81 343 0.0 0.9 0.00 0.07 0.00 91 1012.2
20260510200025 81 330 0.0 1.7 0.00 0.07 0.00 91 1012.2
20260510194524 80 155 0.0 3.5 0.00 0.13 0.00 89 1012.2
20260510193020 79 7 0.0 2.6 0.00 0.13 0.00 88 1012.4
20260510191527 78 352 0.0 1.7 0.00 0.13 0.00 88 1012.4
20260510190032 79 173 0.0 1.7 0.00 0.13 0.00 88 1012.4
20260510184518 78 355 0.0 3.5 0.00 0.18 0.00 88 1012.4
20260510183017 79 141 0.0 0.9 0.00 0.18 0.00 88 1012.7
20260510181536 78 346 0.0 1.7 0.00 0.18 0.00 88 1012.9
20260510180027 78 345 0.0 0.9 0.00 0.18 0.00 88 1013.2
20260510174514 79 226 0.0 0.9 0.00 0.44 0.00 88 1013.5
20260510173019 79 208 0.0 0.9 0.00 0.44 0.00 88 1013.3
20260510171510 78 255 0.0 0.9 0.00 0.44 0.00 88 1013.6
20260510170009 78 288 0.0 2.6 0.00 0.44 0.00 88 1013.7
20260510164508 77 274 0.0 2.6 0.00 0.62 0.00 88 1013.7
20260510163012 78 238 0.0 0.9 0.00 0.62 0.00 88 1013.7
20260510161512 77 215 0.0 1.7 0.00 0.62 0.00 88 1013.9
20260510160006 76 234 0.0 0.9 0.00 0.62 0.00 88 1013.6
20260510154502 76 319 0.0 0.9 0.00 0.80 0.00 88 1013.5
20260510153101 75 200 0.0 1.7 0.00 0.80 0.00 88 1013.6
20260510151608 74 300 0.0 2.6 0.00 0.80 0.00 89 1013.7
20260510144557 74 224 0.0 0.9 0.00 0.83 0.00 89 1014.0
20260510143053 74 217 0.0 0.9 0.00 0.83 0.00 89 1013.7
20260510141550 73 254 0.0 0.9 0.00 0.83 0.00 89 1013.6
20260510140045 72 139 0.0 0.9 0.00 0.83 0.00 89 1013.5
20260510134551 71 326 0.0 0.9 0.00 1.59 0.00 89 1013.7
20260510133038 70 274 0.0 0.0 0.00 1.59 0.00 89 1013.5
20260510131535 69 274 0.0 0.9 0.00 1.59 0.00 89 1013.3
20260510130032 69 224 0.0 0.9 0.00 1.59 0.00 89 1013.1
20260510124529 68 261 0.0 0.9 0.00 1.59 0.00 89 1012.9
20260510123029 68 173 0.0 0.0 0.00 1.59 0.00 89 1012.5
20260510121527 68 173 0.0 0.9 0.00 1.59 0.00 89 1012.4
20260510120024 68 163 0.0 0.9 0.00 1.59 0.00 99 1012.4
20260510114522 68 177 0.0 2.6 0.00 1.59 0.00 99 1012.1
20260510113020 68 168 0.0 3.5 0.00 1.59 0.00 99 1011.6
20260510111518 68 175 0.0 2.6 0.00 1.59 0.00 99 1011.5
20260510110018 67 163 0.0 0.0 0.00 1.59 0.00 99 1011.2
20260510104513 67 179 0.0 0.0 0.00 1.59 0.00 99 1011.0
20260510103011 68 179 0.0 0.0 0.00 1.59 0.00 99 1010.6
20260510101509 0 0.0 0.0 0.00 1.59 0.00 1010.5
20260510100004 0 0.0 0.0 0.00 1.59 0.00 1010.3
20260510094601 0 0.0 0.0 0.00 1.59 0.00 1010.3
20260510093057 0 0.0 0.0 0.00 1.59 0.00 1010.3
20260510091551 0 0.0 0.0 0.00 1.59 0.00 1010.1
20260510090046 0 0.0 0.0 0.00 1.59 0.00 1010.0
20260510084551 64 173 0.0 0.0 0.00 1.59 0.00 89 1010.0
20260510083043 64 173 0.0 0.0 0.00 1.59 0.00 89 1010.1
20260510081538 64 173 0.0 0.0 0.00 1.59 0.00 89 1009.9
20260510080037 64 173 0.0 0.0 0.00 1.59 0.00 89 1009.8
20260510074537 64 173 0.0 0.0 0.00 1.59 0.00 89 1009.8
20260510073040 64 173 0.0 0.0 0.00 1.59 0.00 89 1009.6
20260510071542 64 173 0.0 0.0 0.00 1.59 0.00 89 1009.3
20260510070032 65 173 0.0 0.0 0.00 1.59 0.00 89 1009.6
20260510064532 64 173 0.0 0.0 0.00 1.59 0.00 89 1009.7
20260510063031 65 173 0.0 0.0 0.00 1.59 0.00 89 1009.6
20260510061529 65 173 0.0 0.0 0.00 1.59 0.00 89 1009.6
20260510060034 65 173 0.0 0.0 0.00 1.59 0.00 89 1009.7
20260510054528 65 173 0.0 0.0 0.00 1.59 0.00 89 1009.7
20260510053026 65 173 0.0 0.0 0.00 1.59 0.00 89 1009.5
20260510051536 66 173 0.0 0.0 0.00 1.59 0.00 89 1009.4
20260510050022 66 173 0.0 0.0 0.00 1.59 0.00 89 1009.7
20260510044524 66 173 0.0 0.0 0.00 1.59 1.59 89 1009.6
20260510043024 66 173 0.0 0.0 0.00 1.59 1.59 89 1010.0
20260510041520 66 173 0.0 0.0 0.00 1.59 1.59 89 1009.8
20260510040020 66 349 0.0 2.6 0.00 1.59 1.59 89 1009.7
20260510034519 66 52 0.0 2.6 0.00 1.59 1.59 89 1010.1
20260510033021 66 84 0.0 1.7 0.00 1.59 1.59 89 1010.6
20260510031518 66 74 0.0 0.0 0.00 1.59 1.59 89 1010.5
20260510030017 66 74 0.0 0.0 0.00 1.59 1.59 89 1010.6
20260510024519 66 74 0.0 0.9 0.00 1.59 1.59 89 1010.6
20260510023016 66 104 0.0 0.9 0.00 1.59 1.59 89 1010.2
20260510021515 66 185 0.0 0.9 0.00 1.59 1.59 89 1010.0
20260510020015 67 342 0.0 0.0 0.00 1.59 1.59 89 1009.9
20260510014521 67 335 0.0 0.9 0.00 1.59 1.59 89 1009.7
20260510013014 67 347 0.0 0.9 0.01 1.59 1.59 89 1009.6
20260510011514 67 360 0.0 0.9 0.01 1.59 1.59 89 1009.4
20260510010013 67 1 0.0 0.9 0.01 1.59 1.59 89 1009.4
20260510004512 67 156 0.0 0.9 0.01 1.59 1.59 89 1009.5
20260510003011 67 138 0.0 0.0 0.00 1.58 1.58 89 1009.5
20260510001511 67 181 0.0 0.9 0.02 1.58 1.58 89 1009.6
20260510000010 67 177 0.0 0.9 0.02 1.58 1.58 89 1009.3
20260509234510 68 221 0.0 0.9 0.03 1.58 1.58 89 1009.4
20260509233010 68 221 0.0 0.9 0.03 1.58 1.58 89 1009.4
20260509231509 67 221 0.0 0.9 0.01 1.56 1.56 89 1009.7
20260509230008 68 23 0.0 1.7 0.01 1.56 1.56 89 1009.7